Weather History for Hickory, NC

Change the Weather History Date:

Tuesday, November 8, 2011

  Actual Average Record
Temperature  
Mean Temperature 54 °F -  
Max Temperature 68 °F 62 °F 77 °F (2005)
Min Temperature 41 °F 39 °F 23 °F (1971)
Degree Days  
Heating Degree Days 10    
Growing Degree Days 4 (Base 50)    
Moisture  
Dew Point 45 °F    
Average Humidity 76    
Maximum Humidity 97    
Minimum Humidity 47    
Precipitation  
Precipitation 0.00 in - - ()
Sea Level Pressure  
Sea Level Pressure 30.22 in    
Wind  
Wind Speed 1 mph (West)    
Max Wind Speed 8 mph    
Max Gust Speed -    
Visibility 10 miles    
Events      
Averages and records for this station are not official NWS values.
T = Trace of Precipitation, MM = Missing Value Source: NWS Daily Summary

Daily Weather History Graph

Daily Weather History Graph

Search for Another Location

Airport:

Trip Planner

Search our weather history database for the weather conditions in past years. The results will help you decide how hot, cold, wet, or windy it might be!

Date:

Astronomy

Nov. 08, 2011 Rise Set
Actual Time 6:54 AM EST 5:23 PM EST
Civil Twilight 6:27 AM EST 5:50 PM EST
Nautical Twilight 5:56 AM EST 6:21 PM EST
Astronomical Twilight 5:26 AM EST 6:51 PM EST
Moon 4:01 PM EST (11/8) 4:54 AM EST (11/8)
Length of Visible Light 11h 23m
Length of Day
10h 29m
Waxing Gibbous, 96% of the Moon is Illuminated
Nov 8
Waxing Gibbous
Nov 10
Full
Nov 18
Last Quarter
Nov 25
New
Dec 2
First Quarter

Hourly Weather History & Observations

Time (EST) Temp. Windchill Dew Point Humidity Pressure Visibility Wind Dir Wind Speed Gust Speed Precip Events Conditions
12:53 AM 43.0 °F - 41.0 °F 93% 30.27 in 10.0 mi Calm Calm - N/A   Clear
1:53 AM 45.0 °F - 42.1 °F 90% 30.26 in 10.0 mi Calm Calm - N/A   Clear
2:53 AM 43.0 °F - 41.0 °F 93% 30.25 in 10.0 mi Calm Calm - N/A   Clear
3:53 AM 42.8 °F - 39.2 °F 87% 30.27 in 10.0 mi Calm Calm - N/A   Clear
4:53 AM 42.1 °F 38.4 °F 39.9 °F 92% 30.25 in 10.0 mi WNW 5.8 mph - N/A   Clear
5:53 AM 42.1 °F - 39.9 °F 92% 30.25 in 10.0 mi Calm Calm - N/A   Clear
6:53 AM 41.0 °F - 39.2 °F 93% 30.29 in 10.0 mi Calm Calm - N/A   Clear
7:53 AM 43.0 °F - 42.1 °F 97% 30.27 in 10.0 mi Calm Calm - N/A   Clear
8:53 AM 46.9 °F - 44.1 °F 90% 30.27 in 10.0 mi WNW 3.5 mph - N/A   Clear
9:53 AM 54.0 °F - 46.9 °F 77% 30.27 in 10.0 mi NW 3.5 mph - N/A   Clear
10:53 AM 61.0 °F - 48.0 °F 62% 30.25 in 10.0 mi Calm Calm - N/A   Clear
11:53 AM 64.0 °F - 48.0 °F 56% 30.22 in 10.0 mi South 4.6 mph - N/A   Clear
12:53 PM 66.0 °F - 46.9 °F 50% 30.19 in 10.0 mi Calm Calm - N/A   Clear
1:53 PM 66.9 °F - 46.9 °F 49% 30.17 in 10.0 mi Variable 3.5 mph - N/A   Clear
2:53 PM 68.0 °F - 48.0 °F 49% 30.15 in 10.0 mi SSW 8.1 mph - N/A   Clear
3:53 PM 66.9 °F - 46.0 °F 47% 30.15 in 10.0 mi Variable 4.6 mph - N/A   Clear
4:53 PM 64.9 °F - 46.0 °F 50% 30.15 in 10.0 mi Calm Calm - N/A   Clear
5:53 PM 59.0 °F - 46.9 °F 64% 30.16 in 10.0 mi Calm Calm - N/A   Clear
6:53 PM 57.0 °F - 46.0 °F 67% 30.17 in 10.0 mi Calm Calm - N/A   Clear
7:53 PM 57.2 °F - 46.4 °F 67% 30.21 in 10.0 mi Calm Calm - N/A   Clear
8:53 PM 52.0 °F - 48.0 °F 86% 30.17 in 10.0 mi Calm Calm - N/A   Clear
9:53 PM 50.0 °F - 46.9 °F 89% 30.17 in 10.0 mi Calm Calm - N/A   Clear
10:53 PM 48.0 °F - 45.0 °F 89% 30.16 in 10.0 mi Calm Calm - N/A   Clear
11:53 PM 48.2 °F - 44.6 °F 87% 30.19 in 10.0 mi Calm Calm - N/A   Clear